| time (UTC) | temp C | wind direction | speed KPH | gust KPH | rain 1hr cm | rain 24hr cm | rain mn cm | humidity % | barometer mb |
| 20260503021957 | 4 | 266 | 3.2 | 3.2 | 0.00 | 0.30 | 0.30 | 81 | 1010.9 |
| 20260503021454 | 4 | 291 | 1.6 | 3.2 | 0.00 | 0.30 | 0.30 | 81 | 1010.9 |
| 20260503020951 | 4 | 115 | 1.6 | 3.2 | 0.00 | 0.30 | 0.30 | 81 | 1010.9 |
| 20260503020449 | 4 | 43 | 3.2 | 3.2 | 0.00 | 0.30 | 0.30 | 81 | 1010.9 |
| 20260503015945 | 4 | 178 | 1.6 | 1.6 | 0.00 | 0.30 | 0.30 | 80 | 1010.9 |
| 20260503015442 | 4 | 324 | 6.4 | 9.7 | 0.00 | 0.30 | 0.30 | 80 | 1010.9 |
| 20260503014938 | 4 | 106 | 0.0 | 0.0 | 0.00 | 0.30 | 0.30 | 80 | 1011.4 |
| 20260503014435 | 4 | 210 | 3.2 | 3.2 | 0.00 | 0.30 | 0.30 | 80 | 1010.9 |
| 20260503013933 | 4 | 202 | 3.2 | 3.2 | 0.00 | 0.30 | 0.30 | 81 | 1010.9 |
| 20260503013430 | 5 | 169 | 0.0 | 1.6 | 0.00 | 0.30 | 0.30 | 80 | 1011.4 |
| 20260503012927 | 5 | 158 | 1.6 | 1.6 | 0.00 | 0.30 | 0.30 | 80 | 1011.4 |
| 20260503012426 | 5 | 237 | 3.2 | 4.8 | 0.00 | 0.30 | 0.30 | 80 | 1011.4 |
| 20260503011921 | 5 | 305 | 4.8 | 4.8 | 0.00 | 0.30 | 0.30 | 80 | 1011.4 |
| 20260503011418 | 5 | 154 | 1.6 | 3.2 | 0.00 | 0.30 | 0.30 | 80 | 1010.9 |
| 20260503010915 | 5 | 257 | 1.6 | 3.2 | 0.00 | 0.30 | 0.30 | 80 | 1010.9 |
| 20260503010412 | 5 | 169 | 1.6 | 1.6 | 0.00 | 0.30 | 0.30 | 80 | 1010.9 |
| 20260503005909 | 5 | 102 | 3.2 | 3.2 | 0.00 | 0.30 | 0.30 | 80 | 1010.6 |
| 20260503005407 | 5 | 305 | 6.4 | 9.7 | 0.00 | 0.30 | 0.30 | 80 | 1010.9 |
| 20260503004902 | 5 | 347 | 9.7 | 12.9 | 0.00 | 0.30 | 0.30 | 81 | 1010.9 |
| 20260503004400 | 5 | 46 | 6.4 | 6.4 | 0.00 | 0.30 | 0.30 | 81 | 1010.9 |
| 20260503003857 | 5 | 153 | 0.0 | 0.0 | 0.00 | 0.30 | 0.30 | 81 | 1010.9 |
| 20260503003354 | 5 | 234 | 3.2 | 3.2 | 0.00 | 0.30 | 0.30 | 80 | 1010.9 |
| 20260503002851 | 5 | 267 | 6.4 | 11.3 | 0.00 | 0.30 | 0.30 | 80 | 1010.9 |
| 20260503002349 | 5 | 299 | 6.4 | 9.7 | 0.00 | 0.30 | 0.30 | 80 | 1010.6 |
| 20260503001844 | 6 | 282 | 6.4 | 9.7 | 0.00 | 0.30 | 0.30 | 80 | 1010.3 |
| 20260503001341 | 6 | 41 | 4.8 | 4.8 | 0.00 | 0.30 | 0.30 | 79 | 1010.3 |
| 20260503000838 | 6 | 73 | 3.2 | 4.8 | 0.00 | 0.30 | 0.30 | 79 | 1010.3 |
| 20260503000336 | 6 | 229 | 8.0 | 9.7 | 0.00 | 0.30 | 0.30 | 79 | 1010.3 |
| 20260502235833 | 6 | 255 | 4.8 | 6.4 | 0.00 | 0.30 | 0.30 | 79 | 1009.9 |
| 20260502235330 | 6 | 284 | 3.2 | 4.8 | 0.00 | 0.30 | 0.30 | 79 | 1010.3 |
| 20260502234827 | 6 | 276 | 8.0 | 12.9 | 0.00 | 0.30 | 0.30 | 78 | 1009.9 |
| 20260502234323 | 6 | 138 | 1.6 | 3.2 | 0.00 | 0.30 | 0.30 | 77 | 1010.3 |
| 20260502233820 | 6 | 13 | 4.8 | 6.4 | 0.00 | 0.30 | 0.30 | 76 | 1009.9 |
| 20260502233316 | 6 | 159 | 3.2 | 4.8 | 0.00 | 0.30 | 0.30 | 74 | 1009.9 |
| 20260502232813 | 6 | 256 | 11.3 | 14.5 | 0.00 | 0.30 | 0.30 | 74 | 1009.9 |
| 20260502232310 | 7 | 298 | 3.2 | 3.2 | 0.00 | 0.30 | 0.30 | 74 | 1009.9 |
| 20260502231806 | 7 | 169 | 1.6 | 1.6 | 0.00 | 0.30 | 0.30 | 73 | 1009.6 |
| 20260502231304 | 7 | 269 | 3.2 | 3.2 | 0.00 | 0.30 | 0.30 | 72 | 1009.6 |
| 20260502230802 | 7 | 313 | 4.8 | 6.4 | 0.00 | 0.30 | 0.30 | 72 | 1009.6 |
| 20260502230300 | 7 | 271 | 9.7 | 12.9 | 0.00 | 0.30 | 0.30 | 71 | 1009.6 |
| 20260502225756 | 8 | 292 | 9.7 | 12.9 | 0.00 | 0.30 | 0.30 | 70 | 1009.2 |
| 20260502225253 | 8 | 359 | 12.9 | 16.1 | 0.00 | 0.30 | 0.30 | 69 | 1009.2 |
| 20260502224749 | 8 | 284 | 3.2 | 3.2 | 0.00 | 0.30 | 0.30 | 68 | 1008.9 |
| 20260502224246 | 10 | 293 | 9.7 | 12.9 | 0.00 | 0.30 | 0.30 | 66 | 1008.9 |
| 20260502223744 | 10 | 299 | 4.8 | 4.8 | 0.00 | 0.30 | 0.30 | 69 | 1009.2 |
| 20260502223242 | 10 | 112 | 0.0 | 1.6 | 0.00 | 0.30 | 0.30 | 66 | 1008.9 |
| 20260502222739 | 9 | 281 | 6.4 | 6.4 | 0.00 | 0.30 | 0.30 | 66 | 1008.9 |
| 20260502222236 | 8 | 150 | 0.0 | 0.0 | 0.00 | 0.30 | 0.30 | 67 | 1008.9 |
| 20260502221732 | 9 | 342 | 1.6 | 3.2 | 0.00 | 0.30 | 0.30 | 66 | 1008.9 |
| 20260502221229 | 9 | 250 | 8.0 | 11.3 | 0.00 | 0.30 | 0.30 | 62 | 1008.9 |
| 20260502220725 | 9 | 189 | 1.6 | 1.6 | 0.00 | 0.30 | 0.30 | 62 | 1008.6 |
| 20260502220221 | 9 | 159 | 0.0 | 1.6 | 0.00 | 0.30 | 0.30 | 62 | 1008.9 |
| 20260502215718 | 9 | 283 | 3.2 | 3.2 | 0.00 | 0.30 | 0.30 | 62 | 1008.9 |
| 20260502215215 | 9 | 0 | 3.2 | 3.2 | 0.00 | 0.30 | 0.30 | 62 | 1008.9 |
| 20260502214713 | 9 | 234 | 6.4 | 9.7 | 0.00 | 0.30 | 0.30 | 62 | 1008.9 |
| 20260502214210 | 9 | 246 | 4.8 | 4.8 | 0.00 | 0.30 | 0.30 | 63 | 1008.9 |
| 20260502213707 | 9 | 232 | 3.2 | 4.8 | 0.00 | 0.30 | 0.30 | 61 | 1008.9 |
| 20260502213204 | 9 | 149 | 3.2 | 3.2 | 0.00 | 0.30 | 0.30 | 60 | 1008.9 |
| 20260502212703 | 9 | 258 | 8.0 | 9.7 | 0.00 | 0.30 | 0.30 | 61 | 1009.2 |
| 20260502212200 | 9 | 342 | 3.2 | 3.2 | 0.00 | 0.30 | 0.30 | 61 | 1009.2 |
| 20260502211656 | 9 | 260 | 6.4 | 6.4 | 0.00 | 0.30 | 0.30 | 62 | 1009.2 |
| 20260502211153 | 9 | 222 | 4.8 | 4.8 | 0.00 | 0.30 | 0.30 | 61 | 1008.9 |
| 20260502210650 | 9 | 225 | 12.9 | 16.1 | 0.00 | 0.30 | 0.30 | 62 | 1008.9 |
| 20260502210147 | 10 | 222 | 11.3 | 16.1 | 0.00 | 0.30 | 0.30 | 62 | 1009.2 |
| 20260502205644 | 10 | 234 | 6.4 | 9.7 | 0.00 | 0.30 | 0.30 | 61 | 1008.9 |
| 20260502205141 | 10 | 265 | 6.4 | 6.4 | 0.00 | 0.30 | 0.30 | 61 | 1008.9 |
| 20260502204637 | 10 | 273 | 4.8 | 6.4 | 0.00 | 0.30 | 0.30 | 62 | 1008.9 |
| 20260502204135 | 10 | 284 | 9.7 | 12.9 | 0.00 | 0.30 | 0.30 | 61 | 1008.9 |
| 20260502203632 | 10 | 205 | 3.2 | 4.8 | 0.00 | 0.30 | 0.30 | 64 | 1008.9 |
| 20260502203130 | 10 | 155 | 3.2 | 3.2 | 0.00 | 0.30 | 0.30 | 65 | 1008.9 |
| 20260502202625 | 9 | 170 | 4.8 | 4.8 | 0.00 | 0.30 | 0.30 | 63 | 1009.2 |
| 20260502202123 | 9 | 166 | 1.6 | 3.2 | 0.00 | 0.30 | 0.30 | 66 | 1009.2 |
| 20260502201620 | 9 | 203 | 1.6 | 1.6 | 0.00 | 0.30 | 0.30 | 64 | 1009.2 |
| 20260502201116 | 9 | 145 | 8.0 | 11.3 | 0.00 | 0.30 | 0.30 | 64 | 1009.2 |
| 20260502200612 | 9 | 47 | 1.6 | 3.2 | 0.00 | 0.30 | 0.30 | 69 | 1009.2 |
| 20260502200110 | 10 | 198 | 6.4 | 9.7 | 0.00 | 0.30 | 0.30 | 68 | 1009.2 |
| 20260502195608 | 10 | 194 | 6.4 | 6.4 | 0.00 | 0.30 | 0.30 | 69 | 1009.2 |
| 20260502195103 | 10 | 274 | 8.0 | 9.7 | 0.00 | 0.30 | 0.30 | 76 | 1009.2 |
| 20260502194600 | 8 | 60 | 3.2 | 3.2 | 0.00 | 0.30 | 0.30 | 81 | 1009.2 |
| 20260502194056 | 8 | 158 | 0.0 | 0.0 | 0.00 | 0.30 | 0.30 | 86 | 1009.6 |
| 20260502193554 | 7 | 111 | 0.0 | 1.6 | 0.00 | 0.30 | 0.30 | 87 | 1009.6 |
| 20260502193050 | 7 | 75 | 0.0 | 1.6 | 0.00 | 0.30 | 0.30 | 88 | 1009.6 |
| 20260502192546 | 7 | 82 | 1.6 | 3.2 | 0.00 | 0.30 | 0.30 | 88 | 1009.6 |
| 20260502192043 | 8 | 68 | 1.6 | 1.6 | 0.00 | 0.30 | 0.30 | 87 | 1009.6 |
| 20260502191540 | 8 | 74 | 1.6 | 3.2 | 0.00 | 0.30 | 0.30 | 87 | 1009.6 |
| 20260502191038 | 8 | 140 | 1.6 | 1.6 | 0.00 | 0.30 | 0.30 | 88 | 1009.6 |
| 20260502190536 | 7 | 110 | 1.6 | 1.6 | 0.00 | 0.30 | 0.30 | 87 | 1009.6 |
| 20260502190033 | 7 | 78 | 1.6 | 3.2 | 0.00 | 0.30 | 0.30 | 88 | 1009.6 |
| 20260502185527 | 7 | 98 | 0.0 | 1.6 | 0.00 | 0.30 | 0.30 | 89 | 1009.6 |
| 20260502185024 | 8 | 27 | 6.4 | 6.4 | 0.00 | 0.30 | 0.30 | 87 | 1009.6 |
| 20260502184520 | 10 | 25 | 4.8 | 4.8 | 0.00 | 0.30 | 0.30 | 85 | 1009.9 |
| 20260502184016 | 8 | 153 | 4.8 | 4.8 | 0.00 | 0.30 | 0.30 | 79 | 1009.9 |
| 20260502183513 | 8 | 105 | 1.6 | 1.6 | 0.00 | 0.30 | 0.30 | 82 | 1009.6 |
| 20260502183009 | 7 | 158 | 3.2 | 3.2 | 0.00 | 0.30 | 0.30 | 86 | 1009.9 |
| 20260502182503 | 8 | 160 | 3.2 | 3.2 | 0.00 | 0.30 | 0.30 | 83 | 1009.9 |
| 20260502182000 | 7 | 130 | 0.0 | 0.0 | 0.00 | 0.30 | 0.30 | 79 | 1009.9 |
| 20260502181458 | 7 | 79 | 0.0 | 1.6 | 0.00 | 0.30 | 0.30 | 79 | 1009.9 |
| 20260502180957 | 7 | 299 | 3.2 | 4.8 | 0.00 | 0.30 | 0.30 | 78 | 1009.9 |
| 20260502180453 | 7 | 293 | 6.4 | 9.7 | 0.00 | 0.30 | 0.30 | 81 | 1009.9 |
| 20260502170413 | 6 | 152 | 0.0 | 0.0 | 0.00 | 0.30 | 0.30 | 92 | 1009.9 |
| 20260502163855 | 6 | 66 | 1.6 | 1.6 | 0.18 | 0.30 | 0.30 | 95 | 1009.9 |
| 20260502163352 | 6 | 25 | 3.2 | 3.2 | 0.13 | 0.28 | 0.28 | 95 | 1010.3 |
| 20260502162850 | 6 | 144 | 0.0 | 0.0 | 0.13 | 0.28 | 0.28 | 95 | 1009.9 |
| 20260502162346 | 6 | 138 | 0.0 | 0.0 | 0.18 | 0.25 | 0.25 | 95 | 1009.6 |
| 20260502161843 | 6 | 153 | 4.8 | 4.8 | 0.18 | 0.25 | 0.25 | 95 | 1009.9 |
| 20260502161339 | 6 | 166 | 3.2 | 4.8 | 0.00 | 0.23 | 0.23 | 95 | 1009.9 |
| 20260502160837 | 6 | 63 | 3.2 | 3.2 | 0.00 | 0.23 | 0.23 | 95 | 1010.3 |
| 20260502160336 | 6 | 151 | 3.2 | 4.8 | 0.00 | 0.23 | 0.23 | 94 | 1010.3 |
| 20260502152311 | 5 | 111 | 0.0 | 0.0 | 0.00 | 0.23 | 0.23 | 97 | 1010.3 |
| 20260502151808 | 5 | 78 | 1.6 | 1.6 | 0.00 | 0.23 | 0.23 | 97 | 1010.3 |
| 20260502151305 | 5 | 142 | 0.0 | 0.0 | 0.00 | 0.23 | 0.23 | 98 | 1010.6 |
| 20260502150803 | 5 | 66 | 0.0 | 1.6 | 0.00 | 0.23 | 0.23 | 98 | 1010.6 |
| 20260502150259 | 6 | 54 | 1.6 | 1.6 | 0.00 | 0.23 | 0.23 | 97 | 1010.6 |
| 20260502130647 | 4 | 131 | 0.0 | 0.0 | 0.00 | 0.18 | 0.18 | 99 | 1010.9 |
| 20260502130145 | 4 | 129 | 0.0 | 0.0 | 0.00 | 0.18 | 0.18 | 99 | 1010.9 |
| 20260502123630 | 4 | 69 | 1.6 | 1.6 | 0.00 | 0.18 | 0.18 | 99 | 1010.9 |
| 20260502123127 | 4 | 134 | 0.0 | 0.0 | 0.00 | 0.18 | 0.18 | 99 | 1010.9 |
| 20260502122624 | 3 | 126 | 0.0 | 0.0 | 0.00 | 0.18 | 0.18 | 99 | 1010.9 |
| 20260502122120 | 3 | 149 | 0.0 | 0.0 | 0.00 | 0.18 | 0.18 | 99 | 1010.9 |
| 20260502121619 | 3 | 103 | 0.0 | 1.6 | 0.00 | 0.18 | 0.18 | 99 | 1010.9 |
| 20260502121116 | 3 | 142 | 0.0 | 0.0 | 0.00 | 0.18 | 0.18 | 99 | 1010.6 |
| 20260502120612 | 3 | 146 | 0.0 | 1.6 | 0.00 | 0.18 | 0.18 | 99 | 1010.9 |
| 20260502120109 | 3 | 152 | 0.0 | 0.0 | 0.00 | 0.18 | 0.18 | 99 | 1010.9 |
| 20260502115607 | 3 | 130 | 1.6 | 1.6 | 0.00 | 0.18 | 0.18 | 99 | 1010.9 |
| 20260502115102 | 3 | 134 | 0.0 | 0.0 | 0.00 | 0.18 | 0.18 | 99 | 1010.9 |
| 20260502114559 | 3 | 123 | 0.0 | 0.0 | 0.00 | 0.18 | 0.18 | 99 | 1011.4 |
| 20260502114056 | 3 | 121 | 0.0 | 0.0 | 0.00 | 0.18 | 0.18 | 99 | 1010.9 |
| 20260502113553 | 3 | 136 | 0.0 | 0.0 | 0.00 | 0.18 | 0.18 | 99 | 1010.9 |
| 20260502113052 | 3 | 149 | 0.0 | 0.0 | 0.00 | 0.18 | 0.18 | 99 | 1010.9 |
| 20260502112549 | 3 | 141 | 0.0 | 0.0 | 0.00 | 0.18 | 0.18 | 99 | 1010.9 |
| 20260502112047 | 3 | 137 | 0.0 | 0.0 | 0.00 | 0.18 | 0.18 | 99 | 1010.9 |
| 20260502111544 | 3 | 131 | 1.6 | 1.6 | 0.00 | 0.18 | 0.18 | 98 | 1010.9 |
| 20260502111041 | 3 | 136 | 0.0 | 0.0 | 0.00 | 0.18 | 0.18 | 99 | 1010.9 |
| 20260502110538 | 3 | 125 | 0.0 | 1.6 | 0.00 | 0.18 | 0.18 | 98 | 1010.9 |
| 20260502110036 | 3 | 134 | 0.0 | 0.0 | 0.00 | 0.18 | 0.18 | 98 | 1010.9 |
| 20260502105533 | 3 | 130 | 0.0 | 0.0 | 0.00 | 0.18 | 0.18 | 98 | 1010.9 |
| 20260502105031 | 3 | 126 | 0.0 | 0.0 | 0.00 | 0.18 | 0.18 | 98 | 1010.6 |
| 20260502104527 | 3 | 104 | 0.0 | 1.6 | 0.00 | 0.18 | 0.18 | 98 | 1010.6 |
| 20260502104025 | 3 | 111 | 1.6 | 1.6 | 0.00 | 0.18 | 0.18 | 97 | 1010.9 |
| 20260502103523 | 3 | 82 | 1.6 | 1.6 | 0.00 | 0.18 | 0.18 | 97 | 1010.6 |
| 20260502103021 | 3 | 136 | 0.0 | 0.0 | 0.00 | 0.18 | 0.18 | 97 | 1010.6 |
| 20260502102517 | 3 | 128 | 0.0 | 0.0 | 0.00 | 0.18 | 0.18 | 97 | 1010.6 |
| 20260502102014 | 3 | 122 | 0.0 | 0.0 | 0.00 | 0.18 | 0.18 | 97 | 1010.6 |
| 20260502101512 | 3 | 124 | 0.0 | 0.0 | 0.00 | 0.18 | 0.18 | 96 | 1010.6 |
| 20260502101010 | 3 | 102 | 1.6 | 1.6 | 0.00 | 0.18 | 0.18 | 96 | 1010.6 |
| 20260502100508 | 3 | 121 | 0.0 | 0.0 | 0.00 | 0.18 | 0.18 | 96 | 1010.6 |
| 20260502091443 | 3 | 144 | 0.0 | 0.0 | 0.00 | 0.10 | 0.10 | 94 | 1010.9 |
| 20260502090940 | 3 | 133 | 0.0 | 0.0 | 0.18 | 0.10 | 0.10 | 94 | 1010.6 |
| 20260502090437 | 3 | 140 | 0.0 | 0.0 | 0.18 | 0.10 | 0.10 | 94 | 1010.6 |
| 20260502071331 | 4 | 209 | 3.2 | 3.2 | 0.00 | 0.00 | 0.00 | 84 | 1010.9 |
| 20260502070829 | 4 | 212 | 3.2 | 4.8 | 0.00 | 0.00 | 0.00 | 83 | 1011.4 |
| 20260502070327 | 4 | 175 | 1.6 | 1.6 | 0.00 | 0.00 | 0.00 | 83 | 1010.9 |
| 20260502065825 | 5 | 160 | 0.0 | 1.6 | 0.00 | 0.00 | 0.00 | 83 | 1010.9 |
| 20260502065323 | 5 | 144 | 0.0 | 0.0 | 0.00 | 0.00 | 0.00 | 81 | 1010.9 |
| 20260502064821 | 5 | 149 | 0.0 | 0.0 | 0.00 | 0.00 | 0.00 | 80 | 1010.9 |
| 20260502064319 | 5 | 136 | 0.0 | 0.0 | 0.00 | 0.00 | 0.00 | 79 | 1010.9 |
| 20260502063816 | 5 | 184 | 3.2 | 4.8 | 0.00 | 0.00 | 0.00 | 78 | 1011.4 |
| 20260502063314 | 5 | 160 | 3.2 | 4.8 | 0.00 | 0.00 | 0.00 | 76 | 1010.9 |
| 20260502062811 | 5 | 157 | 3.2 | 3.2 | 0.00 | 0.00 | 0.00 | 76 | 1010.9 |
| 20260502062308 | 5 | 169 | 8.0 | 9.7 | 0.00 | 0.00 | 0.00 | 75 | 1010.9 |
| 20260502061807 | 5 | 183 | 3.2 | 4.8 | 0.00 | 0.00 | 0.00 | 73 | 1011.4 |
| 20260502061304 | 5 | 170 | 6.4 | 6.4 | 0.00 | 0.00 | 0.00 | 72 | 1010.9 |
| 20260502060759 | 5 | 202 | 9.7 | 11.3 | 0.00 | 0.00 | 0.00 | 71 | 1011.4 |
| 20260502060255 | 5 | 168 | 9.7 | 11.3 | 0.00 | 0.00 | 0.00 | 70 | 1011.4 |
| 20260502055753 | 6 | 162 | 9.7 | 12.9 | 0.00 | 0.00 | 0.00 | 69 | 1011.4 |
| 20260502055250 | 6 | 189 | 8.0 | 11.3 | 0.00 | 0.00 | 0.00 | 68 | 1011.4 |
| 20260502054749 | 5 | 189 | 6.4 | 9.7 | 0.00 | 0.00 | 0.00 | 67 | 1011.4 |
| 20260502054247 | 6 | 222 | 6.4 | 9.7 | 0.00 | 0.00 | 0.00 | 64 | 1011.7 |
| 20260502053744 | 6 | 211 | 6.4 | 6.4 | 0.00 | 0.00 | 0.00 | 62 | 1011.4 |
| 20260502053241 | 7 | 251 | 8.0 | 9.7 | 0.00 | 0.00 | 0.00 | 60 | 1011.4 |
| 20260502052739 | 6 | 170 | 6.4 | 9.7 | 0.00 | 0.00 | 0.00 | 61 | 1011.4 |
| 20260502052237 | 6 | 168 | 1.6 | 3.2 | 0.00 | 0.00 | 0.00 | 66 | 1011.4 |
| 20260502051735 | 5 | 184 | 3.2 | 3.2 | 0.00 | 0.00 | 0.00 | 67 | 1011.4 |
| 20260502051233 | 5 | 183 | 1.6 | 3.2 | 0.00 | 0.00 | 0.00 | 72 | 1010.9 |
| 20260502050729 | 6 | 193 | 1.6 | 1.6 | 0.00 | 0.00 | 0.00 | 71 | 1010.9 |
| 20260502050225 | 5 | 177 | 3.2 | 3.2 | 0.00 | 0.00 | 0.00 | 64 | 1011.4 |
| 20260502045723 | 6 | 177 | 3.2 | 3.2 | 0.00 | 0.00 | 0.00 | 68 | 1010.9 |
| 20260502045219 | 5 | 199 | 4.8 | 4.8 | 0.00 | 0.00 | 0.00 | 64 | 1010.9 |
| 20260502044716 | 5 | 221 | 4.8 | 6.4 | 0.00 | 0.00 | 0.00 | 67 | 1010.9 |
| 20260502044212 | 5 | 164 | 1.6 | 1.6 | 0.00 | 0.00 | 0.00 | 72 | 1010.9 |
| 20260502043710 | 5 | 156 | 3.2 | 3.2 | 0.00 | 0.00 | 0.00 | 65 | 1010.9 |
| 20260502043208 | 5 | 147 | 3.2 | 3.2 | 0.00 | 0.00 | 0.00 | 70 | 1010.9 |
| 20260502042707 | 4 | 164 | 3.2 | 4.8 | 0.00 | 0.00 | 0.00 | 65 | 1010.9 |
| 20260502042204 | 5 | 89 | 0.0 | 1.6 | 0.00 | 0.00 | 0.00 | 72 | 1010.6 |
| 20260502041702 | 5 | 174 | 3.2 | 3.2 | 0.00 | 0.00 | 0.00 | 63 | 1011.4 |
| 20260502041158 | 3 | 208 | 4.8 | 4.8 | 0.00 | 0.00 | 0.00 | 70 | 1010.9 |
| 20260502040655 | 4 | 153 | 0.0 | 0.0 | 0.00 | 0.00 | 0.00 | 75 | 1010.9 |
| 20260502040153 | 5 | 169 | 1.6 | 1.6 | 0.00 | 0.00 | 0.00 | 72 | 1011.4 |
| 20260502035649 | 5 | 155 | 0.0 | 0.0 | 0.00 | 0.00 | 0.00 | 68 | 1010.9 |
| 20260502035146 | 4 | 179 | 3.2 | 3.2 | 0.00 | 0.00 | 0.00 | 67 | 1010.9 |
| 20260502034643 | 4 | 148 | 0.0 | 0.0 | 0.00 | 0.00 | 0.00 | 70 | 1010.9 |
| 20260502034142 | 4 | 150 | 0.0 | 0.0 | 0.00 | 0.00 | 0.00 | 70 | 1010.9 |
| 20260502033639 | 3 | 142 | 0.0 | 0.0 | 0.00 | 0.00 | 0.00 | 71 | 1010.9 |
| 20260502033137 | 3 | 143 | 0.0 | 0.0 | 0.00 | 0.00 | 0.00 | 71 | 1010.6 |
| 20260502032632 | 3 | 146 | 0.0 | 0.0 | 0.00 | 0.00 | 0.00 | 70 | 1010.6 |
| 20260502032129 | 4 | 145 | 0.0 | 0.0 | 0.00 | 0.00 | 0.00 | 69 | 1010.6 |
| 20260502031627 | 4 | 144 | 0.0 | 0.0 | 0.00 | 0.00 | 0.00 | 65 | 1010.6 |
| 20260502031124 | 3 | 157 | 1.6 | 1.6 | 0.00 | 0.00 | 0.00 | 67 | 1010.6 |
| 20260502030623 | 3 | 152 | 1.6 | 1.6 | 0.00 | 0.00 | 0.00 | 68 | 1010.9 |
| 20260502030121 | 3 | 195 | 3.2 | 3.2 | 0.00 | 0.00 | 0.00 | 68 | 1010.6 |
| 20260502025618 | 4 | 140 | 0.0 | 0.0 | 0.00 | 0.00 | 0.00 | 66 | 1010.6 |
| 20260502025116 | 5 | 140 | 1.6 | 1.6 | 0.00 | 0.00 | 0.00 | 65 | 1010.6 |
| 20260502024614 | 5 | 157 | 1.6 | 1.6 | 0.00 | 0.00 | 0.00 | 64 | 1010.6 |
| 20260502024111 | 5 | 163 | 3.2 | 3.2 | 0.00 | 0.00 | 0.00 | 63 | 1010.6 |
| 20260502023609 | 4 | 157 | 0.0 | 0.0 | 0.00 | 0.00 | 0.00 | 65 | 1010.6 |
| 20260502023106 | 4 | 160 | 1.6 | 1.6 | 0.00 | 0.00 | 0.00 | 67 | 1010.6 |
| 20260502022603 | 4 | 164 | 1.6 | 1.6 | 0.00 | 0.00 | 0.00 | 68 | 1010.9 |